ASA73 PAJN-PANC

Flight info

Callsign ASA73
Flight time 1h 21m
Altitude 34000
Route CHLKT2 ALATY JOH WITTI5
Aircraft B738/M-SDE2E3FGHIRWXY/LB1

Departure

Time 2026-04-25 17:42
Airport Juneau International Airport (PAJN)

Arrival

Time 2026-04-25 19:04
Airport Ted Stevens Anchorage International Airport (PANC)
Time Latitude Longitude Altitude Speed Heading
2026-04-25 16:48 58.35873 -134.58467 33 ft 0 kts 103°
2026-04-25 17:29 58.35875 -134.58482 33 ft 4 kts 99°
2026-04-25 17:29 58.35874 -134.58530 33 ft 4 kts 62°
2026-04-25 17:30 58.35857 -134.58562 33 ft 4 kts 14°
2026-04-25 17:30 58.35837 -134.58566 32 ft 4 kts
2026-04-25 17:30 58.35815 -134.58583 32 ft 4 kts 57°
2026-04-25 17:30 58.35809 -134.58628 33 ft 4 kts 99°
2026-04-25 17:31 58.35815 -134.58674 30 ft 2 kts 102°
2026-04-25 17:31 58.35815 -134.58676 30 ft 0 kts 102°
2026-04-25 17:36 58.35814 -134.58672 30 ft 0 kts 102°
2026-04-25 17:37 58.35814 -134.58666 30 ft 4 kts 102°
2026-04-25 17:37 58.35780 -134.58592 33 ft 9 kts 152°
2026-04-25 17:38 58.35731 -134.58522 33 ft 9 kts 120°
2026-04-25 17:38 58.35719 -134.58447 33 ft 10 kts 104°
2026-04-25 17:38 58.35692 -134.58239 31 ft 15 kts 104°
2026-04-25 17:38 58.35662 -134.58018 33 ft 19 kts 105°
2026-04-25 17:39 58.35628 -134.57778 32 ft 18 kts 105°
2026-04-25 17:39 58.35595 -134.57545 34 ft 18 kts 105°
2026-04-25 17:39 58.35564 -134.57320 33 ft 17 kts 105°
2026-04-25 17:39 58.35533 -134.57101 31 ft 18 kts 104°
2026-04-25 17:40 58.35500 -134.56857 33 ft 20 kts 105°
2026-04-25 17:40 58.35462 -134.56579 31 ft 23 kts 104°
2026-04-25 17:40 58.35421 -134.56290 33 ft 22 kts 106°
2026-04-25 17:40 58.35383 -134.56013 32 ft 22 kts 104°
2026-04-25 17:41 58.35343 -134.55736 31 ft 21 kts 104°
2026-04-25 17:41 58.35307 -134.55474 33 ft 20 kts 105°
2026-04-25 17:41 58.35243 -134.55300 33 ft 15 kts 176°
2026-04-25 17:41 58.35180 -134.55421 31 ft 14 kts 270°
2026-04-25 17:42 58.35213 -134.55607 31 ft 17 kts 285°
2026-04-25 17:42 58.35300 -134.56231 34 ft 91 kts 284°
2026-04-25 17:42 58.35529 -134.57880 50 ft 163 kts 285°
2026-04-25 17:42 58.35834 -134.60076 926 ft 173 kts 283°
2026-04-25 17:43 58.35941 -134.62455 1723 ft 190 kts 269°
2026-04-25 17:43 58.35911 -134.65106 2061 ft 212 kts 270°
2026-04-25 17:43 58.35920 -134.68040 2357 ft 230 kts 271°
2026-04-25 17:43 58.36065 -134.71194 2634 ft 246 kts 285°
2026-04-25 17:44 58.36640 -134.74314 3310 ft 253 kts 290°
2026-04-25 17:44 58.37250 -134.77474 4114 ft 256 kts 290°
2026-04-25 17:44 58.37860 -134.80694 4863 ft 261 kts 289°
2026-04-25 17:44 58.38471 -134.83978 5625 ft 264 kts 288°
2026-04-25 17:45 58.39081 -134.87287 6487 ft 265 kts 288°
2026-04-25 17:45 58.39287 -134.88409 6771 ft 265 kts 288°
2026-04-25 17:45 58.40300 -134.93972 8059 ft 271 kts 287°
2026-04-25 17:45 58.40918 -134.97383 8860 ft 274 kts 287°
2026-04-25 17:46 58.41542 -135.00839 9697 ft 277 kts 287°
2026-04-25 17:46 58.42173 -135.04348 10429 ft 286 kts 287°
2026-04-25 17:46 58.42845 -135.08103 10617 ft 312 kts 287°
2026-04-25 17:46 58.43687 -135.12093 10808 ft 337 kts 295°
2026-04-25 17:47 58.44905 -135.16015 11329 ft 349 kts 300°
2026-04-25 17:47 58.46256 -135.19927 12086 ft 354 kts 301°
2026-04-25 17:47 58.47637 -135.23842 12854 ft 358 kts 301°
2026-04-25 17:47 58.49023 -135.27821 13610 ft 361 kts 300°
2026-04-25 17:48 58.51805 -135.35976 15063 ft 371 kts 299°
2026-04-25 17:48 58.53204 -135.40144 15850 ft 374 kts 299°
2026-04-25 17:48 58.54616 -135.44376 16582 ft 380 kts 299°
2026-04-25 17:49 58.56045 -135.48682 17260 ft 386 kts 299°
2026-04-25 17:49 58.57490 -135.53048 18003 ft 390 kts 298°
2026-04-25 17:49 58.58947 -135.57459 18719 ft 394 kts 298°
2026-04-25 17:49 58.60420 -135.61928 19292 ft 399 kts 298°
2026-04-25 17:50 58.61906 -135.66445 19969 ft 402 kts 298°
2026-04-25 17:50 58.63406 -135.71011 20599 ft 406 kts 298°
2026-04-25 17:50 58.64918 -135.75626 21167 ft 411 kts 298°
2026-04-25 17:50 58.66446 -135.80297 21744 ft 415 kts 298°
2026-04-25 17:51 58.67990 -135.85026 22300 ft 420 kts 298°
2026-04-25 17:51 58.69547 -135.89803 22879 ft 423 kts 298°
2026-04-25 17:51 58.71118 -135.94628 23410 ft 428 kts 297°
2026-04-25 17:51 58.72699 -135.99505 23920 ft 432 kts 297°
2026-04-25 17:52 58.74295 -136.04440 24364 ft 436 kts 297°
2026-04-25 17:52 58.74816 -136.06051 24517 ft 437 kts 297°
2026-04-25 17:52 58.77492 -136.14338 25306 ft 441 kts 297°
2026-04-25 17:52 58.79112 -136.19372 25763 ft 443 kts 297°
2026-04-25 17:53 58.80742 -136.24450 26193 ft 446 kts 297°
2026-04-25 17:53 58.82415 -136.29516 26577 ft 450 kts 297°
2026-04-25 17:53 58.84071 -136.34668 27004 ft 452 kts 296°
2026-04-25 17:53 58.85711 -136.39859 27446 ft 455 kts 296°
2026-04-25 17:54 58.87358 -136.45094 27848 ft 457 kts 296°
2026-04-25 17:54 58.89015 -136.50360 28236 ft 460 kts 296°
2026-04-25 17:54 58.90687 -136.55666 28588 ft 463 kts 296°
2026-04-25 17:54 58.92366 -136.60993 28949 ft 466 kts 296°
2026-04-25 17:55 58.94062 -136.66375 29314 ft 469 kts 296°
2026-04-25 17:55 58.95761 -136.71774 29696 ft 470 kts 296°
2026-04-25 17:55 58.97463 -136.77196 30085 ft 471 kts 296°
2026-04-25 17:55 58.99163 -136.82619 30560 ft 470 kts 296°
2026-04-25 17:56 59.00859 -136.88032 31013 ft 468 kts 295°
2026-04-25 17:56 59.02540 -136.93419 31450 ft 466 kts 295°
2026-04-25 17:56 59.04210 -136.98803 31839 ft 466 kts 295°
2026-04-25 17:56 59.05885 -137.04207 32212 ft 467 kts 295°
2026-04-25 17:57 59.07558 -137.09608 32633 ft 466 kts 295°
2026-04-25 17:57 59.09224 -137.14997 33082 ft 464 kts 295°
2026-04-25 17:57 59.10875 -137.20374 33462 ft 463 kts 294°
2026-04-25 17:57 59.11432 -137.22194 33580 ft 463 kts 294°
2026-04-25 17:58 59.14175 -137.31127 34211 ft 462 kts 294°
2026-04-25 17:58 59.17492 -137.41968 34260 ft 467 kts 294°
2026-04-25 17:59 59.20796 -137.52815 34259 ft 461 kts 294°
2026-04-25 17:59 59.24056 -137.63572 34265 ft 461 kts 294°
2026-04-25 18:00 59.27305 -137.74354 34296 ft 459 kts 294°
2026-04-25 18:00 59.30540 -137.85125 34274 ft 460 kts 294°
2026-04-25 18:01 59.33764 -137.95940 34290 ft 460 kts 294°
2026-04-25 18:01 59.36979 -138.06764 34287 ft 459 kts 294°
2026-04-25 18:02 59.40186 -138.17598 34294 ft 460 kts 294°
2026-04-25 18:02 59.43090 -138.28700 34320 ft 452 kts 283°
2026-04-25 18:03 59.44979 -138.40458 34314 ft 451 kts 280°
2026-04-25 18:03 59.46751 -138.52304 34305 ft 452 kts 281°
2026-04-25 18:04 59.48576 -138.64127 34311 ft 452 kts 281°
2026-04-25 18:04 59.50440 -138.75936 34277 ft 450 kts 281°
2026-04-25 18:05 59.52302 -138.87696 34299 ft 450 kts 281°
2026-04-25 18:05 59.54153 -138.99458 34306 ft 449 kts 282°
2026-04-25 18:06 59.55993 -139.11259 34288 ft 450 kts 282°
2026-04-25 18:06 59.57822 -139.23063 34292 ft 450 kts 282°
2026-04-25 18:07 59.59629 -139.34812 34290 ft 450 kts 282°
2026-04-25 18:07 59.61436 -139.46640 34283 ft 450 kts 281°
2026-04-25 18:08 59.63234 -139.58488 34316 ft 450 kts 282°
2026-04-25 18:08 59.65020 -139.70352 34297 ft 450 kts 282°
2026-04-25 18:09 59.66796 -139.82216 34298 ft 450 kts 282°
2026-04-25 18:09 59.68560 -139.94097 34293 ft 450 kts 282°
2026-04-25 18:10 59.70314 -140.05985 34294 ft 450 kts 281°
2026-04-25 18:10 59.72056 -140.17889 34292 ft 450 kts 281°
2026-04-25 18:11 59.73495 -140.27780 34313 ft 450 kts 281°
2026-04-25 18:11 59.75222 -140.39740 34297 ft 451 kts 281°
2026-04-25 18:12 59.76937 -140.51699 34295 ft 451 kts 281°
2026-04-25 18:12 59.78645 -140.63690 34291 ft 451 kts 281°
2026-04-25 18:13 59.80340 -140.75690 34293 ft 452 kts 281°
2026-04-25 18:13 59.82028 -140.87723 34289 ft 452 kts 281°
2026-04-25 18:14 59.84541 -141.05808 34292 ft 453 kts 280°
2026-04-25 18:14 59.86203 -141.17889 34285 ft 453 kts 279°
2026-04-25 18:15 59.87857 -141.29999 34287 ft 453 kts 279°
2026-04-25 18:15 59.89499 -141.42110 34287 ft 453 kts 279°
2026-04-25 18:16 59.91131 -141.54246 34291 ft 454 kts 278°
2026-04-25 18:17 59.93560 -141.72497 34286 ft 455 kts 278°
2026-04-25 18:17 59.95170 -141.84704 34282 ft 455 kts 277°
2026-04-25 18:18 59.96756 -141.96831 34286 ft 455 kts 277°
2026-04-25 18:18 59.98342 -142.09052 34285 ft 455 kts 277°
2026-04-25 18:19 59.99916 -142.21281 34286 ft 454 kts 277°
2026-04-25 18:19 60.01479 -142.33529 34287 ft 455 kts 276°
2026-04-25 18:20 60.03031 -142.45783 34287 ft 454 kts 276°
2026-04-25 18:20 60.04569 -142.58032 34283 ft 454 kts 276°
2026-04-25 18:21 60.06095 -142.70280 34291 ft 453 kts 276°
2026-04-25 18:21 60.07605 -142.82510 34284 ft 452 kts 276°
2026-04-25 18:22 60.09102 -142.94739 34340 ft 452 kts 275°
2026-04-25 18:22 60.10591 -143.07000 34291 ft 452 kts 275°
2026-04-25 18:23 60.12065 -143.19250 34292 ft 452 kts 275°
2026-04-25 18:23 60.13526 -143.31490 34282 ft 451 kts 275°
2026-04-25 18:24 60.14974 -143.43721 34287 ft 450 kts 274°
2026-04-25 18:24 60.16406 -143.55933 34286 ft 449 kts 274°
2026-04-25 18:25 60.17816 -143.68063 34282 ft 449 kts 274°
2026-04-25 18:25 60.19223 -143.80273 34286 ft 449 kts 274°
2026-04-25 18:26 60.20619 -143.92493 34295 ft 448 kts 274°
2026-04-25 18:26 60.22005 -144.04739 34286 ft 449 kts 274°
2026-04-25 18:27 60.23380 -144.16989 34278 ft 449 kts 274°
2026-04-25 18:27 60.24744 -144.29262 34282 ft 449 kts 274°
2026-04-25 18:28 60.26095 -144.41513 34297 ft 449 kts 274°
2026-04-25 18:28 60.27435 -144.53789 34295 ft 448 kts 274°
2026-04-25 18:29 60.29424 -144.72213 34286 ft 449 kts 273°
2026-04-25 18:30 60.32031 -144.96783 34315 ft 448 kts 273°
2026-04-25 18:30 60.33319 -145.09092 34299 ft 448 kts 274°
2026-04-25 18:31 60.34594 -145.21402 34296 ft 448 kts 274°
2026-04-25 18:31 60.35859 -145.33725 34286 ft 448 kts 274°
2026-04-25 18:32 60.37103 -145.45961 34293 ft 447 kts 274°
2026-04-25 18:32 60.38349 -145.58350 34293 ft 447 kts 274°
2026-04-25 18:33 60.39567 -145.70580 34286 ft 447 kts 273°
2026-04-25 18:33 60.40783 -145.82963 34000 ft 451 kts 274°
2026-04-25 18:34 60.41392 -145.89168 33721 ft 448 kts 274°
2026-04-25 18:34 60.41995 -145.95336 33410 ft 446 kts 274°
2026-04-25 18:34 60.42594 -146.01498 32654 ft 446 kts 274°
2026-04-25 18:34 60.43186 -146.07640 31916 ft 445 kts 274°
2026-04-25 18:35 60.43775 -146.13780 31184 ft 444 kts 275°
2026-04-25 18:35 60.44361 -146.19932 30399 ft 445 kts 275°
2026-04-25 18:35 60.44944 -146.26080 29552 ft 443 kts 275°
2026-04-25 18:35 60.45519 -146.32156 28973 ft 436 kts 275°
2026-04-25 18:36 60.46084 -146.38143 28395 ft 430 kts 275°
2026-04-25 18:36 60.46635 -146.44038 27840 ft 423 kts 275°
2026-04-25 18:36 60.47178 -146.49872 27236 ft 420 kts 275°
2026-04-25 18:36 60.47714 -146.55660 26660 ft 414 kts 275°
2026-04-25 18:37 60.48270 -146.61361 26185 ft 414 kts 278°
2026-04-25 18:37 60.49072 -146.67034 25920 ft 422 kts 282°
2026-04-25 18:37 60.50018 -146.72703 25602 ft 426 kts 284°
2026-04-25 18:37 60.51009 -146.78353 25299 ft 423 kts 284°
2026-04-25 18:38 60.51990 -146.83952 24999 ft 420 kts 284°
2026-04-25 18:38 60.52950 -146.89531 24715 ft 418 kts 283°
2026-04-25 18:38 60.53885 -146.95105 24416 ft 416 kts 283°
2026-04-25 18:38 60.54806 -147.00673 24121 ft 415 kts 283°
2026-04-25 18:39 60.55715 -147.06231 23803 ft 414 kts 283°
2026-04-25 18:39 60.56617 -147.11787 23495 ft 414 kts 282°
2026-04-25 18:39 60.57515 -147.17347 23159 ft 414 kts 282°
2026-04-25 18:39 60.58408 -147.22904 22836 ft 413 kts 282°
2026-04-25 18:40 60.59298 -147.28449 22557 ft 412 kts 282°
2026-04-25 18:40 60.60182 -147.33977 22254 ft 411 kts 282°
2026-04-25 18:40 60.61062 -147.39495 21961 ft 409 kts 282°
2026-04-25 18:40 60.61936 -147.44997 21669 ft 408 kts 282°
2026-04-25 18:41 60.62807 -147.50494 21366 ft 407 kts 282°
2026-04-25 18:41 60.63672 -147.55966 21072 ft 405 kts 282°
2026-04-25 18:41 60.64532 -147.61425 20781 ft 403 kts 282°
2026-04-25 18:41 60.65384 -147.66854 20493 ft 402 kts 282°
2026-04-25 18:42 60.66231 -147.72264 20206 ft 400 kts 282°
2026-04-25 18:42 60.66516 -147.74091 20142 ft 399 kts 282°
2026-04-25 18:42 60.67907 -147.83026 19654 ft 397 kts 282°
2026-04-25 18:42 60.68738 -147.88386 19374 ft 395 kts 282°
2026-04-25 18:43 60.69563 -147.93724 19085 ft 393 kts 282°
2026-04-25 18:43 60.70381 -147.99028 18806 ft 391 kts 282°
2026-04-25 18:43 60.71193 -148.04308 18527 ft 389 kts 282°
2026-04-25 18:43 60.71998 -148.09570 18210 ft 387 kts 282°
2026-04-25 18:44 60.72799 -148.14803 17918 ft 385 kts 282°
2026-04-25 18:44 60.73592 -148.20002 17652 ft 381 kts 282°
2026-04-25 18:44 60.74371 -148.25144 17399 ft 378 kts 282°
2026-04-25 18:44 60.75141 -148.30276 17105 ft 378 kts 282°
2026-04-25 18:45 60.75909 -148.35424 16834 ft 379 kts 282°
2026-04-25 18:45 60.76675 -148.40576 16582 ft 378 kts 282°
2026-04-25 18:45 60.77437 -148.45712 16295 ft 377 kts 282°
2026-04-25 18:45 60.78196 -148.50837 16029 ft 376 kts 282°
2026-04-25 18:46 60.78952 -148.55955 15747 ft 376 kts 282°
2026-04-25 18:46 60.79699 -148.61076 15488 ft 374 kts 281°
2026-04-25 18:46 60.80415 -148.66188 15192 ft 373 kts 282°
2026-04-25 18:46 60.81167 -148.71268 14933 ft 373 kts 283°
2026-04-25 18:47 60.81916 -148.76301 14522 ft 376 kts 283°
2026-04-25 18:47 60.82664 -148.81381 14202 ft 369 kts 283°
2026-04-25 18:47 60.83395 -148.86370 13879 ft 363 kts 283°
2026-04-25 18:47 60.84116 -148.91322 13610 ft 363 kts 283°
2026-04-25 18:48 60.84839 -148.96291 13337 ft 363 kts 283°
2026-04-25 18:48 60.85553 -149.01270 13073 ft 365 kts 283°
2026-04-25 18:48 60.86266 -149.06259 12836 ft 364 kts 282°
2026-04-25 18:48 60.86977 -149.11246 12552 ft 363 kts 282°
2026-04-25 18:49 60.87682 -149.16196 12279 ft 361 kts 282°
2026-04-25 18:49 60.88385 -149.21124 12009 ft 358 kts 283°
2026-04-25 18:49 60.89228 -149.25932 11740 ft 359 kts 290°
2026-04-25 18:49 60.90286 -149.30563 11453 ft 356 kts 292°
2026-04-25 18:50 60.91373 -149.35054 11146 ft 345 kts 293°
2026-04-25 18:50 60.92413 -149.39365 10873 ft 329 kts 292°
2026-04-25 18:50 60.93391 -149.43508 10595 ft 315 kts 291°
2026-04-25 18:50 60.94314 -149.47493 10344 ft 302 kts 291°
2026-04-25 18:51 60.95191 -149.51332 10091 ft 291 kts 291°
2026-04-25 18:51 60.95478 -149.52598 10017 ft 288 kts 290°
2026-04-25 18:51 60.96862 -149.58724 9622 ft 280 kts 290°
2026-04-25 18:51 60.97678 -149.62345 9398 ft 278 kts 291°
2026-04-25 18:52 60.98488 -149.65959 9176 ft 278 kts 291°
2026-04-25 18:52 60.99302 -149.69584 8958 ft 278 kts 291°
2026-04-25 18:52 61.00127 -149.73193 8723 ft 279 kts 296°
2026-04-25 18:52 61.01365 -149.76289 8490 ft 283 kts 316°
2026-04-25 18:53 61.02832 -149.78980 8277 ft 283 kts 316°
2026-04-25 18:53 61.04292 -149.81694 8050 ft 283 kts 315°
2026-04-25 18:53 61.05738 -149.84429 7808 ft 280 kts 315°
2026-04-25 18:53 61.07163 -149.87154 7571 ft 278 kts 315°
2026-04-25 18:54 61.09888 -149.92656 7089 ft 269 kts 301°
2026-04-25 18:54 61.10492 -149.96194 6913 ft 259 kts 274°
2026-04-25 18:54 61.10562 -149.99894 6710 ft 257 kts 266°
2026-04-25 18:55 61.10504 -150.03586 6359 ft 260 kts 264°
2026-04-25 18:55 61.10432 -150.07316 5957 ft 257 kts 264°
2026-04-25 18:55 61.10368 -150.10914 5708 ft 246 kts 264°
2026-04-25 18:55 61.10316 -150.14327 5454 ft 231 kts 264°
2026-04-25 18:56 61.10270 -150.17630 4938 ft 228 kts 264°
2026-04-25 18:56 61.10228 -150.20735 4440 ft 225 kts 264°
2026-04-25 18:56 61.10199 -150.22905 4077 ft 223 kts 265°
2026-04-25 18:56 61.10155 -150.26099 3554 ft 221 kts 265°
2026-04-25 18:57 61.10113 -150.29263 3107 ft 218 kts 265°
2026-04-25 18:57 61.10095 -150.33347 2994 ft 216 kts 268°
2026-04-25 18:57 61.10114 -150.36448 2972 ft 215 kts 268°
2026-04-25 18:57 61.10122 -150.37498 2888 ft 217 kts 268°
2026-04-25 18:58 61.10888 -150.42392 2289 ft 219 kts 310°
2026-04-25 18:58 61.13033 -150.44692 2002 ft 208 kts 354°
2026-04-25 18:58 61.14463 -150.45034 2001 ft 209 kts 354°
2026-04-25 18:59 61.17105 -150.43789 1978 ft 200 kts 54°
2026-04-25 18:59 61.17096 -150.38428 1985 ft 197 kts 104°
2026-04-25 19:00 61.16841 -150.32903 1966 ft 181 kts 95°
2026-04-25 19:00 61.16802 -150.30369 1968 ft 176 kts 92°
2026-04-25 19:01 61.16787 -150.25313 1985 ft 176 kts 92°
2026-04-25 19:01 61.16784 -150.22764 1937 ft 179 kts 92°
2026-04-25 19:01 61.16783 -150.20235 1719 ft 169 kts 91°
2026-04-25 19:01 61.16781 -150.17891 1493 ft 155 kts 91°
2026-04-25 19:02 61.16779 -150.13826 1081 ft 132 kts 90°
2026-04-25 19:02 61.16779 -150.11925 909 ft 133 kts 89°
2026-04-25 19:02 61.16781 -150.09997 711 ft 135 kts 88°
2026-04-25 19:03 61.16782 -150.06750 454 ft 137 kts 89°
2026-04-25 19:03 61.16783 -150.04069 191 ft 142 kts 90°
2026-04-25 19:03 61.16785 -150.02115 137 ft 124 kts 90°
2026-04-25 19:04 61.16787 -149.99515 126 ft 57 kts 90°
2026-04-25 19:04 61.16788 -149.98941 122 ft 23 kts 90°
2026-04-25 19:05 61.16869 -149.98508 114 ft 13 kts 343°
2026-04-25 19:05 61.17044 -149.98644 113 ft 15 kts 342°
2026-04-25 19:05 61.17142 -149.98713 111 ft 15 kts 341°
2026-04-25 19:06 61.17241 -149.98775 110 ft 13 kts 351°
2026-04-25 19:06 61.17365 -149.98624 109 ft 8 kts 42°
2026-04-25 19:06 61.17409 -149.98556 108 ft 8 kts 34°
2026-04-25 19:07 61.17430 -149.98423 110 ft 1 kts 81°
2026-04-25 19:07 61.17431 -149.98409 110 ft 1 kts 81°
2026-04-25 19:08 61.17432 -149.98400 110 ft 0 kts 81°